T41 EFKU-EFHK

Flight info

Callsign T41
Flight time N/A
Altitude 26000
Route ASTUX DCT LUSEP
Aircraft PC12/L-SDFGRWY/S

Departure

Time 2026-04-25 23:35
Airport Kuopio Airport (EFKU)

Arrival

Time N/A
Airport Helsinki Vantaa Airport (EFHK)
Time Latitude Longitude Altitude Speed Heading
2026-04-25 23:32 63.00572 27.79225 316 ft 0 kts 37°
2026-04-25 23:33 63.00585 27.79247 316 ft 9 kts 36°
2026-04-25 23:33 63.00643 27.79413 318 ft 16 kts 64°
2026-04-25 23:33 63.00695 27.79648 317 ft 18 kts 63°
2026-04-25 23:34 63.00789 27.79689 321 ft 12 kts 357°
2026-04-25 23:34 63.00821 27.79678 322 ft 0 kts 336°
2026-04-25 23:34 63.00821 27.79677 322 ft 3 kts 336°
2026-04-25 23:34 63.00993 27.79520 326 ft 51 kts 335°
2026-04-25 23:35 63.01444 27.79105 361 ft 82 kts 340°
2026-04-25 23:35 63.01965 27.78580 615 ft 88 kts 339°
2026-04-25 23:35 63.02565 27.78036 1045 ft 95 kts 341°
2026-04-25 23:35 63.03208 27.77460 1615 ft 106 kts 348°
2026-04-25 23:36 63.03956 27.76798 2086 ft 126 kts 348°
2026-04-25 23:36 63.04829 27.76006 2550 ft 144 kts 346°
2026-04-25 23:36 63.05799 27.75105 3005 ft 158 kts 345°
2026-04-25 23:36 63.06839 27.74131 3460 ft 167 kts 344°
2026-04-25 23:37 63.07893 27.73000 3906 ft 177 kts 329°
2026-04-25 23:37 63.08583 27.70622 4369 ft 198 kts 291°
2026-04-25 23:37 63.08440 27.67513 4832 ft 212 kts 256°
2026-04-25 23:37 63.07857 27.64491 5294 ft 216 kts 250°
2026-04-25 23:38 63.07233 27.61455 5754 ft 218 kts 251°
2026-04-25 23:38 63.06577 27.58430 6201 ft 221 kts 239°
2026-04-25 23:38 63.05414 27.56194 6640 ft 226 kts 207°
2026-04-25 23:38 63.03901 27.55426 7089 ft 224 kts 176°
2026-04-25 23:39 63.02355 27.55666 7547 ft 222 kts 172°
2026-04-25 23:39 63.01976 27.55743 7658 ft 223 kts 172°